TimeCST,TemperatureF,Dew PointF,Humidity,Sea Level PressureIn,VisibilityMPH,Wind Direction,Wind SpeedMPH,Gust SpeedMPH,PrecipitationIn,Events,Conditions,WindDirDegrees,DateUTC
12:53 AM,30.0,24.1,79,30.29,10.0,SSW,5.8,-,N/A,,Clear,210,2012-11-14 06:53:00
1:53 AM,27.0,23.0,85,30.29,10.0,SSW,5.8,-,N/A,,Clear,200,2012-11-14 07:53:00
2:53 AM,25.0,21.0,85,30.30,10.0,Calm,Calm,-,N/A,,Clear,0,2012-11-14 08:53:00
3:53 AM,24.1,21.0,88,30.29,10.0,Calm,Calm,-,N/A,,Clear,0,2012-11-14 09:53:00
4:53 AM,24.1,21.0,88,30.28,10.0,South,5.8,-,N/A,,Clear,170,2012-11-14 10:53:00
5:53 AM,24.1,21.0,88,30.29,10.0,SSW,3.5,-,N/A,,Clear,200,2012-11-14 11:53:00
6:53 AM,26.1,21.9,84,30.28,10.0,SSW,5.8,-,N/A,,Clear,210,2012-11-14 12:53:00
7:53 AM,23.0,19.9,88,30.28,10.0,SSE,4.6,-,N/A,,Clear,150,2012-11-14 13:53:00
8:53 AM,28.9,24.1,82,30.28,10.0,SSE,4.6,-,N/A,,Clear,150,2012-11-14 14:53:00
9:53 AM,36.0,28.0,73,30.27,10.0,SSE,4.6,-,N/A,,Clear,150,2012-11-14 15:53:00
10:53 AM,42.1,30.9,65,30.26,10.0,South,4.6,-,N/A,,Clear,180,2012-11-14 16:53:00
11:53 AM,48.9,32.0,52,30.23,10.0,South,6.9,-,N/A,,Clear,170,2012-11-14 17:53:00
12:53 PM,53.1,30.9,43,30.19,10.0,South,10.4,-,N/A,,Overcast,180,2012-11-14 18:53:00
1:53 PM,55.0,28.0,35,30.15,10.0,South,11.5,-,N/A,,Overcast,180,2012-11-14 19:53:00
2:53 PM,55.0,28.9,37,30.13,10.0,South,15.0,-,N/A,,Clear,180,2012-11-14 20:53:00
3:53 PM,50.0,30.9,48,30.13,10.0,SSE,11.5,-,N/A,,Clear,150,2012-11-14 21:53:00
4:53 PM,48.0,30.9,52,30.12,10.0,SE,10.4,-,N/A,,Clear,140,2012-11-14 22:53:00
5:53 PM,46.9,30.0,52,30.10,10.0,SSE,13.8,-,N/A,,Clear,150,2012-11-14 23:53:00
6:53 PM,43.0,30.0,60,30.11,10.0,SSE,10.4,-,N/A,,Clear,160,2012-11-15 00:53:00
7:53 PM,42.1,30.0,62,30.12,10.0,South,10.4,-,N/A,,Clear,190,2012-11-15 01:53:00
8:53 PM,39.0,28.9,67,30.13,10.0,SSW,8.1,-,N/A,,Clear,210,2012-11-15 02:53:00
9:53 PM,37.0,28.0,70,30.14,10.0,West,6.9,-,N/A,,Clear,260,2012-11-15 03:53:00
10:53 PM,37.0,28.9,73,30.14,10.0,WSW,5.8,-,N/A,,Clear,240,2012-11-15 04:53:00
11:53 PM,36.0,28.9,76,30.14,10.0,West,5.8,-,N/A,,Clear,260,2012-11-15 05:53:00